Regional Weather Roundup
Issued by NWS

Home | Current Version | Previous Version | Text Only | Print | Product List | Glossary Off
Versions: 1 2 3 4 5 6 7 8 9 10 11 12 13 14 15 16 17 18 19 20 21 22 23 24 25 26 27 28 29 30 31 32 33 34 35 36 37 38 39 40 41 42 43 44 45 46 47 48 49 50

633
ASUS43 KMPX 292101
RWRMN
WEATHER ROUNDUP FOR MINNESOTA
NATIONAL WEATHER SERVICE TWIN CITIES/CHANHASSEN MN
400 PM CDT SAT APR 29 2017


NOTE: "FAIR" INDICATES FEW OR NO CLOUDS BELOW 12,000 FEET WITH NO
SIGNIFICANT WEATHER AND/OR OBSTRUCTIONS TO VISIBILITY. N/A MEANS
CURRENT SKY AND/OR WEATHER CONDITIONS ARE NOT AVAILABLE.

MNZ060>063-068>070-292200-
   Twin Cities Metro

CITY           SKY/WX    TMP DP  RH WIND       PRES   REMARKS
TWIN CITIES    CLOUDY    54  23  30 NE13G25   30.27F
ST PAUL        PTSUNNY   55  25  31 E14       30.29F
CRYSTAL        PTSUNNY   54  21  27 NE10G20   30.28F
BLAINE         CLOUDY    55  25  30 NE12      30.29F
LAKEVILLE      CLOUDY    52  28  40 NE13G18   30.26F
EDEN PRAIRIE   PTSUNNY   55  24  30 NE13G18   30.27F
SOUTH ST PAUL  PTSUNNY   54  23  30 E10G16    30.28S
LAKE ELMO      FAIR      54  28  37 NE10      30.29F
$$
MNZ001>005-007-008-013>017-022>024-027-028-292200-
   Northwest Minnesota

CITY           SKY/WX    TMP DP  RH WIND       PRES   REMARKS
BEMIDJI        SUNNY     55  22  27 SE5       30.32S
HALLOCK        MOSUNNY   57  18  21 S6        30.29S
ROSEAU         SUNNY     57  25  28 S5        30.31R
WARROAD        SUNNY     48  23  37 E10       30.33R
THIEF RVR FALL SUNNY     56  16  20 SE6       30.33R
CROOKSTON      MOSUNNY   57  19  23 CALM      30.33S
FOSSTON        SUNNY     61  34  36 CALM      30.33S
DETROIT LAKES  MOSUNNY   54  23  30 CALM      30.32F
MOORHEAD       PTSUNNY   57  21  24 CALM      30.32F
PARK RAPIDS    CLOUDY    56  19  23 VRB3      30.31S
MAHNOMEN       FAIR      54  25  32 CALM      30.32S
$$
MNZ006-009>011-018-025>026-292200-
   North Central Minnesota

CITY           SKY/WX    TMP DP  RH WIND       PRES   REMARKS
BAUDETTE       SUNNY     56  16  20 VRB3      30.32R
FLAG ISLAND    SUNNY     48  12  23 SE5       30.32R
INTL FALLS     SUNNY     53  15  22 VRB5      30.34R
WASKISH        MOSUNNY   54  25  32 W9        30.34R
BIG FORK       SUNNY     57  19  23 SW5       30.33R
LONGVILLE      MOSUNNY   55  19  24 N3        30.32F
GRAND RAPIDS   MOSUNNY   55  17  22 SE8       30.35R
CRANE LAKE     SUNNY     52   9  17 NW6       30.37R
ORR            SUNNY     55   9  15 W6        30.32R
COOK           CLOUDY    54  16  22 CALM      30.35R
WALKER         FAIR      52  21  29 E8        30.34R
$$
MNZ012-019>021-037-292200-
   Northeast Minnesota

CITY           SKY/WX    TMP DP  RH WIND       PRES   REMARKS
DULUTH         MOSUNNY   46  15  28 E16       30.36R
ELY            SUNNY     50   9  18 E3        30.35R
HIBBING        CLOUDY    53  15  22 VRB3      30.33R
EVELETH        CLOUDY    55  -1  10 N7        30.35R
DULUTH HARBOR  PTSUNNY   41  36  81 N10       30.40S
TWO HARBORS    MOSUNNY   48  23  37 E13       30.37R
SILVER BAY     CLOUDY    45  19  36 E7        30.38R
GRAND MARAIS     N/A     42  34  73 W6        30.43R
G MARAIS ARPRT SUNNY     43  12  28 S6        30.39R
$$
MNZ029>031-032-039>041-046>048-054>057-064-292200-
   West Central Minnesota

CITY           SKY/WX    TMP DP  RH WIND       PRES   REMARKS
FERGUS FALLS   CLOUDY    55  23  28 SE5       30.30F
WHEATON        PTSUNNY   55  19  24 NW3       30.33F
MORRIS         CLOUDY    57  25  28 NE9G16    30.30F
ALEXANDRIA     CLOUDY    54  23  30 E9        30.31F
ELBOW LAKE     FAIR      54  25  32 E5        30.31F
WADENA         CLOUDY    55  25  30 NE8       30.30F
GLENWOOD       CLOUDY    55  25  30 NE12      30.30F
APPLETON       PTSUNNY   57  21  24 NE12      30.28F
BENSON           N/A     57   9  14 NE8G16    30.31F
ORTONVILLE     PTSUNNY   55  19  24 E5G16     30.30F
MADISON        PTSUNNY   57  23  26 NE10G21   30.28F
WILLMAR        FAIR      55  27  33 NE14      30.29F
$$
MNZ033>034-036-042>043-049>051-058-059-292200-
   Central Minnesota

CITY           SKY/WX    TMP DP  RH WIND       PRES   REMARKS
ST CLOUD       CLOUDY    55  22  27 NE9       30.31S
SAUK CENTRE    FAIR      54  25  32 E9        30.31F
PAYNESVILLE    CLOUDY    54  23  29 E12       30.30F
AITKIN         CLOUDY    57  10  15 N7        30.31F
PINE RIVER     MOSUNNY   55  25  30 NE9       30.34F
BRAINERD       MOSUNNY   55  21  26 E8        30.32F
STAPLES        CLOUDY    55  18  22 NE3       30.31F
LONG PRAIRIE   FAIR      54  25  32 N6        30.31F
LITTLE FALLS   PTSUNNY   54  23  30 E9        30.32F
LITCHFIELD     CLOUDY    55  27  33 E12G17    30.30F
BUFFALO        PTSUNNY   54  23  30 NE12G17   30.30F
MAPLE LAKE     CLOUDY    55  26  33 NE9       30.30F
HUTCHINSON     MOSUNNY   54  28  36 E12G18    30.29F
$$
MNZ037-044-045-052-053-292200-
   East Central Minnesota

CITY           SKY/WX    TMP DP  RH WIND       PRES   REMARKS
PRINCETON      PTSUNNY   57  23  26 N13       30.31F
MORA           CLOUDY    54  21  28 NE3       30.33F
CAMBRIDGE      CLOUDY    55  32  41 N10       30.28F
RUSH CITY      CLOUDY    55  22  28 E8G16     30.30F
MOOSE LAKE     PTSUNNY   52  19  28 E6        30.32F
HINCKLEY       FAIR      54  21  28 NE12      30.32F
CLOQUET        MOSUNNY   48  12  23 E10       30.35S
MCGREGOR       CLOUDY    55  21  26 E5        30.32F
$$
MNZ071>073-080-081-089-090-097-098-292200-
   Southwest Minnesota

CITY           SKY/WX    TMP DP  RH WIND       PRES   REMARKS
MONTEVIDEO     PTSUNNY   57  23  26 E12G17    30.28F
GRANITE FALLS  CLOUDY    56  27  32 NE12G22   30.28F
CANBY          CLOUDY    56  21  25 NE12G22   30.28F
MARSHALL       PTSUNNY   54  24  31 NE15      30.24F
REDWOOD FALLS  CLOUDY    54  20  26 NE12G22   30.26F
OLIVIA         CLOUDY    54  25  32 NE9G16    30.26F
PIPESTONE      CLOUDY    54  14  20 E15G25    30.19F
WINDOM         CLOUDY    52  21  30 NE16      30.20F
WORTHINGTON    CLOUDY    50  22  33 NE23      30.18F
JACKSON        CLOUDY    48  25  40 NE22      30.19F
TRACY          CLOUDY    54  27  35 NE22G29   30.22F
SLAYTON        CLOUDY    51  24  34 NE18G24   30.24F
$$
MNZ065>067-074>077-082>085-091>093-292200-
   South Central Minnesota

CITY           SKY/WX    TMP DP  RH WIND       PRES   REMARKS
MANKATO        CLOUDY    51  27  39 NE18      30.24F
NEW ULM        CLOUDY    52  21  30 NE14      30.24F
ST JAMES       CLOUDY    52  25  35 NE16G22   30.22F
FAIRMONT       CLOUDY    50  26  39 NE17      30.18F
GLENCOE        CLOUDY    54  28  37 NE9       30.27F
FARIBAULT      CLOUDY    52  28  40 NE10G17   30.25F
OWATONNA       CLOUDY    50  28  43 NE14      30.24F
WASECA         CLOUDY    52  32  46 NE12      30.24F
ALBERT LEA     CLOUDY    48  27  43 NE16      30.19F
$$
MNZ078>079-086>088-094>096-292200-
   Southeast Minnesota

CITY           SKY/WX    TMP DP  RH WIND       PRES   REMARKS
ROCHESTER      CLOUDY    47  29  49 NE17      30.22F
RED WING       CLOUDY    54  23  30 E7        30.26F
STANTON        CLOUDY    53  28  37 NE14      30.25F
DODGE CENTER   CLOUDY    48  28  46 NE12      30.23F
WINONA         CLOUDY    48  30  49 E8        30.25F
AUSTIN         CLOUDY    46  28  49 NE15G21   30.20F
PRESTON        CLOUDY    45  27  50 NE14G20   30.20F
$$
ABBREVIATIONS USED IN REMARKS
   TC - TEMPERATURES IN CELSIUS
  WCI - WIND CHILL INDEX
   HX - HEAT INDEX
  VSB - VISIBILITY
$$




USA.gov is the U.S. government's official web portal to all federal, state and local government web resources and services.